Tracking 17147 objects as of 5-July-2015
HD Live streaming from Space Station

NAVSTAR 50 (USA 156)

Track NAVSTAR 50 (USA 156) now!
NAVSTAR 50 (USA 156) is classified as:


NORAD ID: 26690
Int'l Code: 2001-004A
Perigee: 19,749.2 km
Apogee: 20,628.4 km
Inclination: 53.0 °
Period: 718.0 minutes
Semi major axis: 26559 km
RCS: 2.5119 m2 (large)
Launch date: January 30, 2001
Source: United States (US)
PRN: 18

NAVSTAR 50 (USA 156) is an American GPS navigational spacecraft that was launched by a Delta 2 rocket from Vandenberg AFB at 07:55 UT. The two-ton satellite is the 28th member of the "second generation" fleet, four of which (including the latest) being replacements for the older models.
Your satellite tracking list
Your tracking list is empty





NASA's NSSDC Master Catalog

Two Line Element Set (TLE):
1 26690U 01004A   15185.41469130  .00000067  00000-0  00000+0 0  9998
2 26690 053.0057 187.6513 0165499 248.5024 309.9806 02.00569859105707

Source of the keplerian elements: AFSPC

N2YO: 303